CW8242 Weather Reports


Display with metric or nautical units.
time (UTC)temp
F
wind
direction
speed
MPH
gust
MPH
rain 1hr
in
rain 24hr
in
rain mn
in
humidity
%
barometer
mb
20190421165206 42 212 0.0 0.0 0.00 0.00 0.00 85 967.5
20190421164207 42 236 0.0 1.0 0.00 0.00 0.00 85 967.3
20190421163207 41 232 0.0 0.0 0.00 0.00 0.00 85 967.6
20190421162206 41 232 0.0 0.0 0.00 0.00 0.00 86 967.4
20190421161206 40 231 0.0 0.0 0.00 0.00 0.00 88 967.5
20190421160206 40 230 0.0 0.0 0.00 0.00 0.00 88 967.6
20190421155206 40 230 0.0 0.0 0.00 0.00 0.00 88 967.5
20190421154207 40 229 0.0 0.0 0.00 0.00 0.00 88 967.6
20190421153207 40 227 0.0 1.0 0.00 0.00 0.00 88 967.5
20190421152206 40 275 0.0 0.0 0.00 0.00 0.00 87 967.6
20190421151206 40 280 0.0 0.0 0.00 0.00 0.00 86 967.5
20190421150206 40 281 0.0 0.0 0.00 0.00 0.00 86 967.5
20190421145206 40 284 0.0 0.0 0.00 0.00 0.00 86 967.4
20190421144206 39 280 0.0 3.0 0.00 0.00 0.00 87 967.4
20190421143206 39 309 0.0 0.0 0.00 0.00 0.00 87 967.1
20190421142206 39 309 0.0 0.0 0.00 0.00 0.00 87 967.0
20190421141206 39 267 0.0 2.0 0.00 0.00 0.00 88 966.9
20190421140206 39 328 0.0 0.0 0.00 0.00 0.00 89 966.8
20190421135206 39 327 0.0 0.0 0.00 0.00 0.00 89 966.6
20190421134206 39 327 0.0 0.0 0.00 0.00 0.00 90 966.6
20190421133206 39 327 0.0 0.0 0.00 0.00 0.00 90 966.5
20190421132206 38 328 0.0 0.0 0.00 0.00 0.00 90 966.5
20190421131206 38 328 0.0 0.0 0.00 0.00 0.00 90 966.3
20190421130207 38 328 0.0 0.0 0.00 0.00 0.00 90 966.2
20190421125206 38 328 0.0 0.0 0.00 0.00 0.00 90 966.3
20190421124206 39 328 0.0 0.0 0.00 0.00 0.00 90 966.2
20190421123206 39 327 0.0 0.0 0.00 0.00 0.00 90 966.0
20190421122206 39 328 0.0 0.0 0.00 0.00 0.00 90 966.0
20190421121206 39 328 0.0 0.0 0.00 0.00 0.00 89 966.0
20190421120206 39 328 0.0 0.0 0.00 0.00 0.00 89 965.9
20190421115206 39 327 0.0 0.0 0.00 0.00 0.00 89 965.9
20190421114206 39 328 0.0 0.0 0.00 0.00 0.00 89 965.8
20190421113205 39 328 0.0 0.0 0.00 0.00 0.00 89 965.7
20190421112206 39 328 0.0 0.0 0.00 0.00 0.00 89 965.7
20190421111206 39 327 0.0 0.0 0.00 0.00 0.00 89 965.6
20190421110206 39 331 0.0 0.0 0.00 0.00 0.00 89 965.6
20190421105207 39 331 0.0 0.0 0.00 0.00 0.00 88 965.4
20190421104206 40 331 0.0 0.0 0.00 0.00 0.00 88 965.3
20190421103206 40 331 0.0 0.0 0.00 0.00 0.00 88 965.3
20190421102205 40 331 0.0 0.0 0.00 0.00 0.00 87 965.1
20190421101205 40 331 0.0 0.0 0.00 0.00 0.00 87 964.9
20190421100205 40 316 0.0 0.0 0.00 0.00 0.00 87 964.8
20190421095205 40 317 0.0 4.0 0.00 0.00 0.00 87 964.8
20190421094205 40 308 0.0 0.0 0.00 0.00 0.00 88 964.8
20190421093206 40 292 0.0 0.0 0.00 0.00 0.00 88 964.6
20190421092207 40 325 0.0 0.0 0.00 0.00 0.00 87 964.6
20190421091205 40 322 0.0 0.0 0.00 0.00 0.00 87 964.5
20190421090207 40 335 0.0 0.0 0.00 0.00 0.00 88 964.4
20190421085205 40 331 0.0 0.0 0.00 0.00 0.00 88 964.3
20190421084205 40 360 0.0 1.0 0.00 0.00 0.00 87 964.3
20190421083205 40 315 0.0 0.0 0.00 0.00 0.00 87 964.4
20190421082205 40 323 0.0 0.0 0.00 0.00 0.00 87 964.3
20190421081205 40 340 0.0 0.0 0.00 0.00 0.00 87 964.3
20190421080205 40 323 0.0 0.0 0.00 0.00 0.00 87 964.2
20190421075205 40 288 0.0 7.0 0.00 0.00 0.00 86 964.1
20190421074205 40 293 4.0 8.0 0.00 0.00 0.00 87 963.9
20190421073206 40 286 6.0 8.0 0.00 0.00 0.00 86 963.5
20190421071205 41 260 0.0 0.0 0.00 0.00 0.00 86 963.4
20190421070205 41 257 0.0 0.0 0.00 0.00 0.00 86 963.2
20190421065205 41 260 0.0 8.0 0.00 0.00 0.35 85 963.1
20190421064205 41 276 4.0 9.0 0.00 0.00 0.35 85 963.1
20190421063205 41 314 0.0 7.0 0.00 0.00 0.35 85 963.1
20190421062205 41 307 0.0 0.0 0.00 0.00 0.35 85 963.0
20190421061205 41 331 1.0 1.0 0.00 0.00 0.35 85 963.0
20190421060205 41 303 0.0 1.0 0.00 0.00 0.35 85 962.9
20190421055205 41 300 0.0 7.0 0.00 0.00 0.35 85 962.9
20190421054206 41 302 4.0 11.0 0.00 0.00 0.35 84 962.7
20190421053205 41 285 0.0 10.0 0.00 0.00 0.35 84 962.7
20190421052206 41 300 1.0 10.0 0.00 0.00 0.35 83 962.5
20190421051205 42 283 7.0 12.0 0.00 0.00 0.35 83 962.4
20190421050206 42 294 8.0 11.0 0.00 0.00 0.35 82 962.3
20190421045206 42 291 7.0 10.0 0.00 0.00 0.35 82 962.3
20190421044206 42 296 9.0 12.0 0.00 0.00 0.35 82 962.2
20190421043205 42 294 12.0 12.0 0.00 0.00 0.35 82 962.1
20190421042206 42 281 6.0 11.0 0.00 0.00 0.35 82 961.9
20190421041205 42 294 3.0 10.0 0.00 0.00 0.35 82 961.7
20190421040206 42 294 4.0 12.0 0.00 0.00 0.35 82 961.6
20190421035205 43 274 10.0 11.0 0.00 0.00 0.35 82 961.4
20190421034205 43 273 8.0 12.0 0.00 0.00 0.35 81 961.2
20190421033205 43 284 10.0 11.0 0.00 0.00 0.35 82 961.0
20190421032205 43 294 4.0 11.0 0.00 0.00 0.35 82 960.9
20190421031206 43 314 9.0 14.0 0.00 0.00 0.35 82 960.8
20190421030205 43 269 10.0 15.0 0.00 0.00 0.35 83 960.6
20190421025206 43 286 11.0 18.0 0.00 0.00 0.35 81 960.4
20190421024205 43 287 12.0 18.0 0.00 0.00 0.35 81 960.3
20190421023205 43 288 7.0 18.0 0.00 0.00 0.35 82 960.2
20190421022205 43 279 17.0 17.0 0.00 0.00 0.35 83 960.1
20190421021206 44 275 8.0 15.0 0.00 0.00 0.35 84 959.9
20190421020205 44 279 1.0 15.0 0.00 0.00 0.35 84 959.8
20190421015205 44 276 7.0 17.0 0.00 0.00 0.35 83 959.7
20190421014205 44 272 12.0 14.0 0.00 0.00 0.35 83 959.7
20190421013204 44 282 9.0 14.0 0.00 0.00 0.35 83 959.5
20190421012205 44 273 9.0 17.0 0.00 0.00 0.35 82 959.3
20190421011205 44 271 12.0 18.0 0.00 0.00 0.35 82 959.2
20190421010205 45 285 12.0 19.0 0.00 0.00 0.35 82 959.0
20190421005205 45 298 13.0 22.0 0.00 0.00 0.35 81 958.8
20190421004206 45 273 19.0 26.0 0.00 0.00 0.35 82 958.6
20190421003204 45 287 12.0 21.0 0.00 0.00 0.35 82 958.5
20190421002205 45 288 12.0 18.0 0.00 0.00 0.35 83 958.4
20190421001204 45 286 11.0 21.0 0.00 0.00 0.35 84 958.2
20190421000205 45 284 14.0 21.0 0.00 0.00 0.35 84 957.9
20190420235204 46 275 14.0 23.0 0.00 0.00 0.35 85 957.9
20190420234204 45 271 19.0 23.0 0.00 0.00 0.35 84 957.7
20190420233204 46 287 17.0 23.0 0.00 0.00 0.35 85 957.7
20190420232205 46 277 13.0 21.0 0.00 0.00 0.35 85 957.6
20190420231204 46 284 13.0 22.0 0.00 0.00 0.35 86 957.5
20190420230204 46 286 13.0 21.0 0.00 0.00 0.34 86 957.4
20190420225205 45 285 20.0 21.0 0.00 0.00 0.34 87 957.2
20190420224204 46 269 14.0 19.0 0.00 0.00 0.34 87 957.1
20190420223204 46 277 8.0 13.0 0.00 0.00 0.34 88 957.0
20190420222204 46 280 10.0 14.0 0.00 0.00 0.34 88 957.0
20190420221204 45 271 15.0 15.0 0.00 0.00 0.34 89 956.8
20190420220204 45 271 12.0 16.0 0.00 0.00 0.34 90 956.7
20190420215204 45 259 8.0 21.0 0.00 0.00 0.34 90 956.6
20190420214205 46 254 9.0 14.0 0.00 0.00 0.34 91 956.5
20190420213204 45 280 7.0 15.0 0.00 0.00 0.34 91 956.5
20190420212204 45 257 8.0 14.0 0.00 0.00 0.34 92 956.4
20190420211204 44 276 9.0 13.0 0.00 0.00 0.34 92 956.4
20190420210204 44 260 9.0 14.0 0.00 0.00 0.34 92 956.3
20190420205204 45 267 9.0 14.0 0.00 0.00 0.34 92 956.2
20190420204204 45 257 9.0 15.0 0.00 0.00 0.34 92 956.0
20190420203204 45 272 12.0 19.0 0.00 0.00 0.34 92 955.9
20190420202204 45 264 10.0 14.0 0.00 0.00 0.34 92 955.7
20190420200204 44 262 10.0 16.0 0.00 0.00 0.34 92 955.7
20190420195204 44 272 12.0 14.0 0.00 0.00 0.34 92 955.7
20190420194204 43 265 9.0 15.0 0.00 0.00 0.34 92 955.7
20190420193204 43 268 9.0 14.0 0.00 0.00 0.34 92 955.6
20190420192206 43 259 9.0 15.0 0.00 0.00 0.34 92 955.5
20190420191204 43 258 13.0 16.0 0.00 0.00 0.34 92 955.4
20190420190204 43 275 8.0 16.0 0.00 0.00 0.34 92 955.3
20190420185204 43 270 11.0 19.0 0.00 0.00 0.33 92 955.1
20190420184204 43 275 11.0 17.0 0.00 0.00 0.33 92 955.1
20190420183203 43 279 9.0 17.0 0.00 0.00 0.33 92 955.1
20190420182203 43 277 18.0 18.0 0.00 0.00 0.33 92 955.0
20190420181204 43 264 13.0 16.0 0.00 0.00 0.33 92 954.9
20190420180203 43 264 9.0 14.0 0.00 0.00 0.33 92 954.6
20190420175204 43 255 12.0 14.0 0.00 0.00 0.33 92 954.5
20190420174203 43 267 11.0 14.0 0.00 0.00 0.33 92 954.4
20190420173205 43 259 11.0 15.0 0.00 0.00 0.32 92 954.2
20190420172204 43 281 8.0 14.0 0.00 0.00 0.32 92 954.0
20190420171203 42 267 10.0 16.0 0.00 0.00 0.31 92 954.0
20190420170203 42 279 0.0 12.0 0.00 0.00 0.31 92 953.9